Sabadell, Spain

11:21 PM CET en Noviembre 16, 2018 (GMT +0100)
Sabadell

Tiempo Historia de LELL - Noviembre, 2018

Change the Weather History Date:

Viernes, Noviembre 9, 2018

  Actual Average (LEBL) Record (LEBL)
Temperature  
Temperatura media 56 ° F -  
Temperatura máxima 60 ° F 63 ° F 71 ° F (2002)
Temperatura mínima 51 ° F 49 ° F 41 ° F (2000)
Degree Days  
Grados día de calefacción 10    
Growing Degree Days 6 (Base 50)    
Moisture  
Punto de rocío 52 ° F    
Average Humidity 86    
Maximum Humidity 100    
Minimum Humidity 68    
Precipitación  
Precipitación 0.00 pul - - ()
Presión al nivel del mar  
Presión al nivel del mar 29.91 pul    
Viento  
Velocidad del viento 4 mph ()    
Velocidad máxima del viento 13 mph    
Max Gust Speed -    
Visibilidad 5.9 Millas    
Eventos Lluvia    
Averages and records for this station are not official NWS values.
T = Trace of Precipitation, MM = Missing Value Source: Averaged Metar Reports

Daily Weather History Graph

Daily Weather History Graph

Search for Another Location

Airport or City:

Astronomía

Nov. 09, 2018 Salida Puesta
Hora real 7:32 AM CET 5:37 PM CET
Crepúsculo civil 7:03 AM CET 6:06 PM CET
Crepúsculo náutico 6:30 AM CET 6:39 PM CET
Crepúsculo astronómico 5:57 AM CET 7:12 PM CET
Luna 9:07 AM CET (11/9) 7:11 PM CET (11/9)
Horas de luz 11h 03m
Horas de luz
10h 04m
Creciente, 4% of the Moon is Illuminated
Nov 9
Creciente
Nov 15
Cuarto creciente
Nov 23
Luna llena
Nov 30
Cuarto menguante
Dic 7
Nueva

Hourly Weather History & Observations

Hora (CET) Temp. Punto de rocío Humedad Presión Visibilidad Wind Dir Velocidad del viento Velocidad de ráfagas Precip Eventos Condiciones
12:30 AM 55.4 ° F 53.6 ° F 94% 29.95 pul 6.2 mi Oeste 3.5 mph - N/A   Nublado
1:00 AM 55.4 ° F 53.6 ° F 94% 29.95 pul 6.2 mi Oeste 2.3 mph - N/A   Nublado
1:30 AM 55.4 ° F 53.6 ° F 94% 29.92 pul 6.2 mi ONO 2.3 mph - N/A   Muy nublado
2:00 AM 55.4 ° F 53.6 ° F 94% 29.92 pul 6.2 mi Variable 1.2 mph - N/A   Muy nublado
2:30 AM 55.4 ° F 55.4 ° F 100% 29.89 pul 6.2 mi ONO 1.2 mph - N/A Lluvia Lluvia débil
3:00 AM 55.4 ° F 55.4 ° F 100% 29.89 pul - Sur 5.8 mph - N/A Lluvia Lluvia
3:30 AM 55.4 ° F 55.4 ° F 100% 29.89 pul 3.7 mi ONO 4.6 mph - N/A   Muy nublado
4:00 AM 55.4 ° F 55.4 ° F 100% 29.89 pul - Oeste 3.5 mph - N/A Lluvia Lluvia
4:30 AM 57.2 ° F 57.2 ° F 100% 29.89 pul 3.7 mi ONO 3.5 mph - N/A Lluvia Lluvia débil
5:00 AM 57.2 ° F 57.2 ° F 100% 29.86 pul - OSO 3.5 mph - N/A Lluvia Lluvias fuertes
5:30 AM 55.4 ° F 55.4 ° F 100% 29.86 pul 3.1 mi OSO 4.6 mph - N/A Lluvia Lluvias fuertes
6:00 AM 55.4 ° F 53.6 ° F 94% 29.86 pul 6.2 mi ONO 5.8 mph - N/A Lluvia Lluvia débil
6:30 AM 55.4 ° F 51.8 ° F 88% 29.86 pul 6.2 mi NO 5.8 mph - N/A   Muy nublado
7:00 AM 55.4 ° F 51.8 ° F 88% 29.86 pul 6.2 mi Variable 1.2 mph - N/A Lluvia Lluvia débil
7:30 AM 55.4 ° F 51.8 ° F 88% 29.86 pul 5.6 mi SO 2.3 mph - N/A Lluvia Lluvia débil
8:00 AM 55.4 ° F 51.8 ° F 88% 29.86 pul 5.6 mi SSO 1.2 mph - N/A Lluvia Lluvia débil
8:30 AM 53.6 ° F 51.8 ° F 94% 29.86 pul 5.6 mi Sin viento Sin viento - N/A Lluvia Lluvia débil
9:00 AM 55.4 ° F 53.6 ° F 94% 29.86 pul 5.6 mi Variable 2.3 mph - N/A   Muy nublado
9:30 AM 55.4 ° F 53.6 ° F 94% 29.86 pul 5.6 mi OSO 1.2 mph - N/A   Muy nublado
10:00 AM 55.4 ° F 51.8 ° F 88% 29.86 pul 6.2 mi Oeste 4.6 mph - N/A   Muy nublado
10:30 AM 59.0 ° F 53.6 ° F 82% 29.86 pul 6.2 mi NNO 3.5 mph - N/A   Parcialmente nublado
11:00 AM 60.8 ° F 51.8 ° F 72% 29.86 pul 6.2 mi NO 11.5 mph - N/A   Parcialmente nublado
11:30 AM 60.8 ° F 50.0 ° F 68% 29.86 pul 6.2 mi NNO 9.2 mph - N/A   Parcialmente nublado
12:00 PM 60.8 ° F 51.8 ° F 72% 29.86 pul 6.2 mi ONO 6.9 mph - N/A   Muy nublado
1:30 PM 59.0 ° F 51.8 ° F 77% 29.86 pul 6.2 mi OSO 6.9 mph - N/A   Nublado
2:30 PM 57.2 ° F 51.8 ° F 82% 29.89 pul 6.2 mi Oeste 12.7 mph - N/A   Nublado
3:00 PM 57.2 ° F 50.0 ° F 77% 29.89 pul 6.2 mi Oeste 11.5 mph - N/A   Nublado
3:30 PM 57.2 ° F 51.8 ° F 82% 29.89 pul 6.2 mi Oeste 9.2 mph - N/A   Nublado
4:00 PM 57.2 ° F 51.8 ° F 82% 29.92 pul 6.2 mi Oeste 10.4 mph - N/A   Nublado
4:30 PM 57.2 ° F 50.0 ° F 77% 29.92 pul 6.2 mi ONO 6.9 mph - N/A   Nublado
5:00 PM 57.2 ° F 51.8 ° F 82% 29.92 pul 6.2 mi Variable 2.3 mph - N/A   Muy nublado
5:30 PM 57.2 ° F 51.8 ° F 82% 29.95 pul 6.2 mi Variable 2.3 mph - N/A   Muy nublado
6:00 PM 57.2 ° F 51.8 ° F 82% 29.92 pul 6.2 mi Sin viento Sin viento - N/A   Muy nublado
6:30 PM 57.2 ° F 51.8 ° F 82% 29.95 pul 6.2 mi OSO 5.8 mph - N/A   Muy nublado
7:00 PM 57.2 ° F 50.0 ° F 77% 29.95 pul - Oeste 4.6 mph - N/A   Despejado
7:30 PM 55.4 ° F 50.0 ° F 82% 29.95 pul - OSO 3.5 mph - N/A   Despejado
8:00 PM 55.4 ° F 50.0 ° F 82% 29.95 pul 6.2 mi Variable 2.3 mph - N/A   Desconocido
8:30 PM 53.6 ° F 48.2 ° F 82% 29.95 pul 6.2 mi Variable 1.2 mph - N/A   Parcialmente nublado
9:00 PM 53.6 ° F 48.2 ° F 82% 29.95 pul 6.2 mi Oeste 5.8 mph - N/A   Parcialmente nublado
9:30 PM 53.6 ° F 48.2 ° F 82% 29.98 pul 6.2 mi Variable 1.2 mph - N/A   Desconocido
10:00 PM 51.8 ° F 46.4 ° F 82% 29.98 pul 6.2 mi Variable 2.3 mph - N/A   Desconocido
10:30 PM 51.8 ° F 46.4 ° F 82% 29.98 pul 6.2 mi OSO 5.8 mph - N/A   Desconocido
11:00 PM 53.6 ° F 46.4 ° F 77% 29.98 pul 6.2 mi OSO 6.9 mph - N/A   Desconocido
11:30 PM 51.8 ° F 44.6 ° F 76% 29.98 pul 6.2 mi OSO 4.6 mph - N/A   Desconocido